DAL785 KATL-KSFO

Flight info

Callsign DAL785
Flight time N/A
Altitude 28000
Route CUTTN2 HANKO MEM VLUST Q128 ZAROS/N0464F300 Q128 FLOOD J28 BDROC ELLMU HVE J28 MLF KITTN Q164 KATTS INYOE DYAMD5
Aircraft A21N/M-SDE2E3FGHIRWXY/LB1

Departure

Time N/A
Airport Hartsfield Jackson Atlanta International Airport (KATL)

Arrival

Time 2026-05-05 02:26
Airport San Francisco International Airport (KSFO)
Time Latitude Longitude Altitude Speed Heading
2026-05-05 01:37 38.33283 -115.62486 29702 ft 436 kts 266°
2026-05-05 01:37 38.33291 -115.66355 29728 ft 438 kts 266°
2026-05-05 01:37 38.33300 -115.74176 29706 ft 442 kts 267°
2026-05-05 01:38 38.33326 -115.82014 29707 ft 443 kts 267°
2026-05-05 01:38 38.33342 -115.89805 29713 ft 443 kts 267°
2026-05-05 01:39 38.33349 -115.97651 29721 ft 444 kts 267°
2026-05-05 01:39 38.33349 -116.05535 29728 ft 449 kts 267°
2026-05-05 01:40 38.33294 -116.13594 29736 ft 457 kts 267°
2026-05-05 01:40 38.33272 -116.21691 29733 ft 457 kts 267°
2026-05-05 01:41 38.33271 -116.29805 29749 ft 461 kts 269°
2026-05-05 01:41 38.32534 -116.37895 29747 ft 461 kts 256°
2026-05-05 01:42 38.31178 -116.45819 29755 ft 461 kts 256°
2026-05-05 01:42 38.29831 -116.53796 29768 ft 460 kts 256°
2026-05-05 01:43 38.28470 -116.61803 29773 ft 467 kts 256°
2026-05-05 01:43 38.27082 -116.69896 29774 ft 468 kts 256°
2026-05-05 01:44 38.25688 -116.77993 29793 ft 468 kts 256°
2026-05-05 01:44 38.24286 -116.86093 29816 ft 468 kts 256°
2026-05-05 01:45 38.22882 -116.94198 29840 ft 476 kts 256°
2026-05-05 01:45 38.21411 -117.02407 29850 ft 476 kts 256°
2026-05-05 01:46 38.19954 -117.10591 29858 ft 475 kts 256°
2026-05-05 01:46 38.18508 -117.18771 29867 ft 474 kts 257°
2026-05-05 01:47 38.17063 -117.27017 29769 ft 478 kts 257°
2026-05-05 01:47 38.15596 -117.35268 29766 ft 478 kts 257°
2026-05-05 01:48 38.14126 -117.43519 29759 ft 479 kts 257°
2026-05-05 01:48 38.12667 -117.51757 29758 ft 478 kts 258°
2026-05-05 01:49 38.11185 -117.59950 29751 ft 478 kts 257°
2026-05-05 01:49 38.09691 -117.68185 29765 ft 478 kts 257°
2026-05-05 01:50 38.08203 -117.76418 29759 ft 478 kts 257°
2026-05-05 01:50 38.06699 -117.84650 29762 ft 478 kts 257°
2026-05-05 01:51 38.05197 -117.92862 29766 ft 477 kts 257°
2026-05-05 01:51 38.03689 -118.01058 29768 ft 477 kts 257°
2026-05-05 01:52 38.02196 -118.09218 29757 ft 480 kts 258°
2026-05-05 01:52 38.00652 -118.17524 29762 ft 485 kts 258°
2026-05-05 01:53 37.99112 -118.25845 29756 ft 485 kts 258°
2026-05-05 01:53 37.97557 -118.34144 29770 ft 483 kts 258°
2026-05-05 01:54 37.95988 -118.42453 29774 ft 486 kts 259°
2026-05-05 01:54 37.94414 -118.50804 29788 ft 487 kts 259°
2026-05-05 01:55 37.92832 -118.59144 29790 ft 486 kts 259°
2026-05-05 01:55 37.91257 -118.67428 29845 ft 487 kts 259°
2026-05-05 01:56 37.89665 -118.75858 29857 ft 493 kts 261°
2026-05-05 01:56 37.88620 -118.84436 29882 ft 492 kts 265°
2026-05-05 01:57 37.87651 -118.93008 29893 ft 492 kts 265°
2026-05-05 01:57 37.86673 -119.01589 29909 ft 492 kts 264°
2026-05-05 01:58 37.85677 -119.10163 29882 ft 492 kts 264°
2026-05-05 01:58 37.84674 -119.18729 29909 ft 492 kts 264°
2026-05-05 01:59 37.83682 -119.27307 29939 ft 496 kts 264°
2026-05-05 01:59 37.82683 -119.35952 29932 ft 501 kts 263°
2026-05-05 02:00 37.81664 -119.44675 29955 ft 501 kts 263°
2026-05-05 02:00 37.80630 -119.53404 29983 ft 501 kts 263°
2026-05-05 02:01 37.79583 -119.62160 30006 ft 506 kts 262°
2026-05-05 02:01 37.78503 -119.70959 30002 ft 506 kts 262°
2026-05-05 02:02 37.77430 -119.79753 30013 ft 506 kts 262°
2026-05-05 02:02 37.76359 -119.88549 30021 ft 504 kts 262°
2026-05-05 02:03 37.75293 -119.97230 30028 ft 503 kts 262°
2026-05-05 02:03 37.74222 -120.05968 30035 ft 503 kts 262°
2026-05-05 02:04 37.73137 -120.14701 30032 ft 505 kts 261°
2026-05-05 02:04 37.72043 -120.23498 30027 ft 507 kts 261°
2026-05-05 02:05 37.70945 -120.32288 30019 ft 507 kts 261°
2026-05-05 02:05 37.69828 -120.41089 30012 ft 507 kts 261°
2026-05-05 02:06 37.68798 -120.49910 30016 ft 508 kts 262°
2026-05-05 02:06 37.67786 -120.58679 29845 ft 502 kts 262°
2026-05-05 02:07 37.67271 -120.63039 28511 ft 506 kts 262°
2026-05-05 02:07 37.66754 -120.67434 27502 ft 504 kts 262°
2026-05-05 02:07 37.66240 -120.71786 26750 ft 495 kts 262°
2026-05-05 02:07 37.65732 -120.76063 26003 ft 488 kts 262°
2026-05-05 02:08 37.65236 -120.80217 25360 ft 469 kts 262°
2026-05-05 02:08 37.64754 -120.84204 24731 ft 451 kts 262°
2026-05-05 02:08 37.64291 -120.88047 24107 ft 435 kts 262°
2026-05-05 02:08 37.63838 -120.91778 23099 ft 428 kts 262°
2026-05-05 02:09 37.63391 -120.95456 22060 ft 419 kts 262°
2026-05-05 02:09 37.62939 -120.99063 20964 ft 414 kts 262°
2026-05-05 02:09 37.62464 -121.02611 19985 ft 405 kts 261°
2026-05-05 02:09 37.61992 -121.06087 19020 ft 398 kts 261°
2026-05-05 02:10 37.61540 -121.09426 18414 ft 385 kts 261°
2026-05-05 02:10 37.61094 -121.12707 17903 ft 375 kts 261°
2026-05-05 02:10 37.60655 -121.15936 17416 ft 371 kts 261°
2026-05-05 02:10 37.60222 -121.19125 16949 ft 367 kts 261°
2026-05-05 02:11 37.59799 -121.22282 16501 ft 363 kts 261°
2026-05-05 02:11 37.59369 -121.25461 16121 ft 366 kts 261°
2026-05-05 02:11 37.58956 -121.28615 15663 ft 363 kts 262°
2026-05-05 02:11 37.58597 -121.31758 15209 ft 361 kts 263°
2026-05-05 02:12 37.58366 -121.33830 14895 ft 359 kts 263°
2026-05-05 02:12 37.57659 -121.40046 13925 ft 355 kts 263°
2026-05-05 02:12 37.57311 -121.43092 13413 ft 347 kts 263°
2026-05-05 02:13 37.56971 -121.46093 12928 ft 344 kts 263°
2026-05-05 02:13 37.56629 -121.49064 12490 ft 341 kts 263°
2026-05-05 02:13 37.56293 -121.51947 12107 ft 329 kts 263°
2026-05-05 02:13 37.55970 -121.54736 11862 ft 314 kts 263°
2026-05-05 02:14 37.55659 -121.57398 11548 ft 302 kts 263°
2026-05-05 02:14 37.55359 -121.59984 11167 ft 294 kts 263°
2026-05-05 02:14 37.55041 -121.62513 10776 ft 291 kts 259°
2026-05-05 02:14 37.54507 -121.64972 10390 ft 290 kts 255°
2026-05-05 02:15 37.53927 -121.67364 10103 ft 280 kts 254°
2026-05-05 02:15 37.53372 -121.69653 9926 ft 266 kts 254°
2026-05-05 02:15 37.52846 -121.71833 9739 ft 254 kts 254°
2026-05-05 02:15 37.52342 -121.73926 9435 ft 246 kts 254°
2026-05-05 02:16 37.51854 -121.75954 9038 ft 244 kts 253°
2026-05-05 02:16 37.51362 -121.77990 8634 ft 241 kts 253°
2026-05-05 02:16 37.50879 -121.79998 8247 ft 238 kts 253°
2026-05-05 02:16 37.50406 -121.81993 7908 ft 236 kts 253°
2026-05-05 02:17 37.49933 -121.83965 7610 ft 235 kts 252°
2026-05-05 02:17 37.49458 -121.85923 7312 ft 233 kts 252°
2026-05-05 02:17 37.49092 -121.87904 6993 ft 232 kts 265°
2026-05-05 02:17 37.49144 -121.89930 6689 ft 231 kts 273°
2026-05-05 02:18 37.49274 -121.91936 6410 ft 226 kts 273°
2026-05-05 02:18 37.49396 -121.93860 6202 ft 214 kts 273°
2026-05-05 02:18 37.49507 -121.95656 6005 ft 202 kts 272°
2026-05-05 02:18 37.49615 -121.97380 5727 ft 195 kts 271°
2026-05-05 02:19 37.49712 -121.99086 5446 ft 194 kts 272°
2026-05-05 02:19 37.49811 -122.00784 5169 ft 194 kts 272°
2026-05-05 02:19 37.49906 -122.02470 4990 ft 193 kts 272°
2026-05-05 02:19 37.49998 -122.04158 4838 ft 193 kts 271°
2026-05-05 02:20 37.50097 -122.05833 4565 ft 191 kts 271°
2026-05-05 02:20 37.50189 -122.07484 4269 ft 187 kts 271°
2026-05-05 02:20 37.50299 -122.09096 4022 ft 184 kts 277°
2026-05-05 02:20 37.50656 -122.10623 3890 ft 183 kts 293°
2026-05-05 02:21 37.51241 -122.12034 3755 ft 182 kts 298°
2026-05-05 02:21 37.51870 -122.13417 3648 ft 182 kts 298°
2026-05-05 02:21 37.52496 -122.14811 3547 ft 183 kts 298°
2026-05-05 02:21 37.53130 -122.16176 3443 ft 178 kts 297°
2026-05-05 02:22 37.53728 -122.17558 3268 ft 179 kts 296°
2026-05-05 02:22 37.54306 -122.18922 3051 ft 174 kts 296°
2026-05-05 02:22 37.54867 -122.20257 2830 ft 171 kts 296°
2026-05-05 02:22 37.55425 -122.21585 2676 ft 172 kts 296°
2026-05-05 02:23 37.55987 -122.22924 2438 ft 172 kts 297°
2026-05-05 02:23 37.56541 -122.24243 2178 ft 170 kts 297°
2026-05-05 02:23 37.57094 -122.25560 1944 ft 170 kts 297°
2026-05-05 02:23 37.57647 -122.26880 1714 ft 170 kts 297°
2026-05-05 02:24 37.58204 -122.28208 1444 ft 170 kts 297°
2026-05-05 02:24 37.58753 -122.29517 1185 ft 156 kts 296°
2026-05-05 02:24 37.59186 -122.30547 968 ft 121 kts 295°
2026-05-05 02:24 37.59564 -122.31451 804 ft 114 kts 296°
2026-05-05 02:25 37.59933 -122.32332 658 ft 113 kts 295°
2026-05-05 02:25 37.60307 -122.33224 504 ft 116 kts 295°
2026-05-05 02:25 37.60686 -122.34126 353 ft 117 kts 296°
2026-05-05 02:25 37.61066 -122.35033 205 ft 117 kts 296°
2026-05-05 02:26 37.61449 -122.35940 49 ft 117 kts 296°
2026-05-05 02:26 37.61794 -122.36769 27 ft 85 kts 297°
2026-05-05 02:26 37.61990 -122.37241 27 ft 50 kts 300°
2026-05-05 02:26 37.62124 -122.37561 27 ft 20 kts 297°
2026-05-05 02:27 37.62128 -122.37710 27 ft 19 kts 222°
2026-05-05 02:27 37.62047 -122.37820 27 ft 17 kts 230°
2026-05-05 02:27 37.61983 -122.37912 27 ft 11 kts 228°
2026-05-05 02:27 37.61908 -122.37939 27 ft 14 kts 153°
2026-05-05 02:28 37.61843 -122.37881 27 ft 9 kts 136°
2026-05-05 02:28 37.61807 -122.37796 27 ft 13 kts 111°
2026-05-05 02:28 37.61769 -122.37674 27 ft 16 kts 111°
2026-05-05 02:28 37.61730 -122.37546 27 ft 15 kts 111°
2026-05-05 02:29 37.61720 -122.37516 27 ft 1 kts 116°
2026-05-05 02:29 37.61719 -122.37513 27 ft 0 kts 116°
2026-05-05 02:29 37.61714 -122.37500 27 ft 6 kts 116°
2026-05-05 02:29 37.61678 -122.37441 27 ft 10 kts 152°
2026-05-05 02:30 37.61600 -122.37464 27 ft 14 kts 208°
2026-05-05 02:30 37.61500 -122.37531 27 ft 18 kts 208°
2026-05-05 02:30 37.61382 -122.37611 27 ft 21 kts 208°
2026-05-05 02:30 37.61300 -122.37718 27 ft 16 kts 252°
2026-05-05 02:31 37.61293 -122.37814 27 ft 11 kts 282°
2026-05-05 02:31 37.61332 -122.37915 27 ft 14 kts 300°
2026-05-05 02:31 37.61359 -122.37980 27 ft 9 kts 295°
2026-05-05 02:31 37.61393 -122.38066 27 ft 13 kts 300°
2026-05-05 02:32 37.61453 -122.38105 27 ft 9 kts 15°
2026-05-05 02:32 37.61507 -122.38074 27 ft 4 kts 22°
2026-05-05 02:32 37.61533 -122.38106 27 ft 9 kts 273°
2026-05-05 02:32 37.61519 -122.38168 27 ft 4 kts 254°
2026-05-05 02:33 37.61515 -122.38183 27 ft 1 kts 253°
2026-05-05 02:33 37.61514 -122.38187 27 ft 0 kts 253°